Location: Isle-of-Palms
(32.8045°N, 79.7399°W)
Time: 12:33:49
(UTC+00:00)

Hubble Space Telescope - Visible Passes

Search period start: 12 August 2022 00:00
Search period end: 22 August 2022 00:00
Orbit: 532 x 535 km, 28.5° (Epoch: 11 August)

Date Brightness Start Highest point End Pass type
(mag) Time Alt. Az. Time Alt. Az. Time Alt. Az.
12 Aug 1.3 01:18:55 10° WSW 01:22:49 43° S 01:24:25 29° SE visible
13 Aug 1.4 01:06:53 10° WSW 01:10:45 40° S 01:12:55 22° SE visible
14 Aug 1.6 00:54:51 10° WSW 00:58:40 37° S 01:01:24 17° SE visible
15 Aug 1.8 00:42:51 10° WSW 00:46:34 33° SSW 00:49:54 12° SE visible
15 Aug 3.5 02:25:04 10° SW 02:25:08 10° SW 02:25:08 10° SW visible
16 Aug 2.1 00:30:52 10° WSW 00:34:28 29° SSW 00:38:03 10° SE visible
